Location: Borotín
(49.5055°N, 14.6142°E)
Time: 11:06:27
(UTC+00:00)

Cosmos 2184 Rocket - Pass Details

Date: 27 May 2022
Orbit: 958 x 1003 km, 82.9° (Epoch: 26 June)

Event Time Altitude Azimuth Distance (km) Brightness Sun altitude
Rises 00:15:46 0° 352° (N) 3,703 8.2 -17.2°
Reaches altitude 10° 00:18:22 10° 356° (N) 2,744 7.4 -17.0°
Maximum altitude 00:24:34 60° 76° (ENE) 1,110 4.4 -16.7°
Enters shadow 00:30:24 11° 156° (SSE) 2,601 5.8 -16.4°
